TimeCDT,TemperatureF,Dew PointF,Humidity,Sea Level PressureIn,VisibilityMPH,Wind Direction,Wind SpeedMPH,Gust SpeedMPH,PrecipitationIn,Events,Conditions,WindDirDegrees,DateUTC
12:54 AM,64.9,59.0,81,29.99,10.0,SE,4.6,-,N/A,,Clear,140,2013-07-05 05:54:00
1:54 AM,64.9,57.9,78,29.99,10.0,Calm,Calm,-,N/A,,Clear,0,2013-07-05 06:54:00
2:54 AM,61.0,57.0,87,29.99,10.0,ESE,3.5,-,N/A,,Clear,110,2013-07-05 07:54:00
3:54 AM,61.0,57.0,87,29.99,10.0,SE,3.5,-,N/A,,Clear,140,2013-07-05 08:54:00
4:54 AM,60.1,55.9,86,29.99,10.0,Calm,Calm,-,N/A,,Clear,0,2013-07-05 09:54:00
5:54 AM,61.0,57.0,87,29.99,10.0,Calm,Calm,-,N/A,,Clear,0,2013-07-05 10:54:00
6:54 AM,66.0,57.9,75,30.00,10.0,Calm,Calm,-,N/A,,Clear,0,2013-07-05 11:54:00
7:54 AM,71.1,59.0,66,30.00,10.0,Calm,Calm,-,N/A,,Clear,0,2013-07-05 12:54:00
8:54 AM,77.0,61.0,58,30.01,10.0,SSW,4.6,-,N/A,,Clear,200,2013-07-05 13:54:00
9:54 AM,81.0,59.0,47,30.00,10.0,SW,5.8,-,N/A,,Clear,220,2013-07-05 14:54:00
10:54 AM,82.9,57.9,42,29.99,10.0,SW,8.1,18.4,N/A,,Clear,220,2013-07-05 15:54:00
11:54 AM,84.9,55.9,37,29.97,10.0,SSW,16.1,21.9,N/A,,Partly Cloudy,200,2013-07-05 16:54:00
12:54 PM,84.9,55.0,36,29.96,10.0,South,13.8,-,N/A,,Partly Cloudy,190,2013-07-05 17:54:00
1:54 PM,86.0,54.0,33,29.95,10.0,South,9.2,20.7,N/A,,Partly Cloudy,190,2013-07-05 18:54:00
2:54 PM,86.0,55.0,35,29.95,10.0,SSW,12.7,26.5,N/A,,Scattered Clouds,210,2013-07-05 19:54:00
3:54 PM,86.0,55.9,36,29.94,10.0,SSW,11.5,20.7,N/A,,Scattered Clouds,200,2013-07-05 20:54:00
4:54 PM,86.0,54.0,33,29.93,10.0,South,17.3,23.0,N/A,,Clear,190,2013-07-05 21:54:00
5:54 PM,84.0,54.0,35,29.92,10.0,SSW,9.2,20.7,N/A,,Partly Cloudy,200,2013-07-05 22:54:00
6:54 PM,82.9,55.0,38,29.91,10.0,SSW,8.1,17.3,N/A,,Clear,200,2013-07-05 23:54:00
7:54 PM,79.0,57.0,47,29.93,10.0,South,5.8,-,N/A,,Clear,180,2013-07-06 00:54:00
8:54 PM,75.0,59.0,57,29.93,10.0,South,6.9,-,N/A,,Clear,170,2013-07-06 01:54:00
9:54 PM,73.0,57.9,59,29.94,10.0,SSE,3.5,-,N/A,,Clear,160,2013-07-06 02:54:00
10:54 PM,69.1,57.9,68,29.94,10.0,SSE,4.6,-,N/A,,Clear,160,2013-07-06 03:54:00
11:54 PM,70.0,59.0,68,29.94,10.0,South,8.1,-,N/A,,Clear,170,2013-07-06 04:54:00